Volver al catálogo

STARLINK-11531

ActivoComunicacionesVLEO
NORAD 62841·PAYLOAD·🇺🇸 United States

Lanzado Jan 27, 2025 desde Cape Canaveral Space Force Station

Loading…

Próximos Pases (próximas 24 horas)

TLE

ActualizadoSource: CelesTrak SupGP

Época: Sep 14, 2026, 21:32 UTC

1 62841C 25019N   26257.89770833  .00053943  00000+0  41904-3 0  2576
2 62841  43.0006 245.6467 0001501 259.0263 205.8085 15.70808442    12

Sigue STARLINK-11531 en tiempo real con AllMySat

Download on the App Store